DW6561 Weather Reports


Display with metric or nautical units.
time (UTC)temp
F
wind
direction
speed
MPH
gust
MPH
rain 1hr
in
rain 24hr
in
rain mn
in
humidity
%
barometer
mb
20260903000003 66 292 4.0 15.0 0.00 0.00 0.00 55 1007.4
20260902234504 67 134 2.0 14.0 0.00 0.00 0.00 51 1007.4
20260902233004 68 202 2.0 10.0 0.00 0.00 0.00 50 1007.4
20260902231503 68 224 2.0 7.0 0.00 0.00 0.00 53 1007.4
20260902230003 66 186 0.0 6.0 0.00 0.00 0.00 59 1007.4
20260902224504 66 188 2.0 10.0 0.00 0.00 0.00 61 1007.5
20260902223007 70 184 2.0 14.0 0.00 0.00 0.00 55 1007.3
20260902221508 74 187 0.0 4.0 0.00 0.00 0.00 42 1006.8
20260902220006 74 99 0.0 1.0 0.00 0.00 0.00 45 1006.7
20260902214509 75 99 0.0 2.0 0.00 0.00 0.00 43 1006.8
20260902213006 75 80 0.0 1.0 0.00 0.00 0.00 44 1006.8
20260902211507 76 102 0.0 3.0 0.00 0.00 0.00 42 1006.7
20260902210008 76 124 2.0 9.0 0.00 0.00 0.00 41 1006.7
20260902204510 76 126 0.0 9.0 0.00 0.00 0.00 40 1006.9
20260902203007 74 163 0.0 0.0 0.00 0.00 0.00 42 1007.0
20260902201508 74 191 0.0 8.0 0.00 0.00 0.00 43 1007.3
20260902200010 74 223 0.0 6.0 0.00 0.00 0.00 39 1007.5
20260902194524 75 178 0.0 8.0 0.00 0.00 0.00 41 1007.8
20260902193014 74 132 1.0 7.0 0.00 0.00 0.00 42 1008.0
20260902191512 74 186 0.0 11.0 0.00 0.00 0.00 42 1008.2
20260902190013 73 253 2.0 9.0 0.00 0.00 0.00 42 1008.4
20260902184514 73 165 1.0 10.0 0.00 0.00 0.00 43 1008.5
20260902183011 72 158 4.0 10.0 0.00 0.00 0.00 43 1008.7
20260902181516 71 130 4.0 10.0 0.00 0.00 0.00 44 1008.7
20260902180014 68 157 0.0 7.0 0.00 0.00 0.00 50 1008.8
20260902174514 67 172 3.0 10.0 0.00 0.00 0.00 50 1008.9
20260902173024 67 162 3.0 14.0 0.00 0.00 0.00 50 1008.9
20260902171518 66 210 2.0 13.0 0.00 0.00 0.00 52 1008.9
20260902170020 66 147 5.0 14.0 0.00 0.00 0.00 52 1008.8
20260902164517 64 173 4.0 13.0 0.00 0.00 0.00 56 1008.8
20260902163018 63 194 4.0 11.0 0.00 0.00 0.00 60 1008.8
20260902161533 62 202 6.0 14.0 0.00 0.00 0.00 61 1008.8
20260902160024 61 166 4.0 11.0 0.00 0.00 0.00 65 1009.0
20260902154506 60 120 4.0 10.0 0.00 0.00 0.00 67 1009.1
20260902153003 60 200 6.0 13.0 0.00 0.00 0.00 68 1009.3
20260902151503 59 139 4.0 10.0 0.00 0.00 0.00 70 1009.2
20260902150003 58 197 5.0 10.0 0.00 0.00 0.00 71 1009.1
20260902144506 58 215 4.0 13.0 0.00 0.00 0.00 72 1008.9
20260902143003 58 196 7.0 18.0 0.00 0.00 0.00 72 1008.6
20260902141502 58 164 9.0 19.0 0.00 0.00 0.00 72 1008.2
20260902140011 57 180 7.0 18.0 0.00 0.00 0.00 72 1008.1
20260902134516 57 145 6.0 12.0 0.00 0.00 0.00 73 1008.3
20260902133014 57 102 6.0 16.0 0.00 0.00 0.00 72 1008.4
20260902131512 57 195 5.0 13.0 0.00 0.00 0.00 72 1008.1
20260902130004 57 177 4.0 14.0 0.00 0.00 0.00 73 1008.0
20260902124504 57 157 6.0 12.0 0.00 0.00 0.00 73 1007.9
20260902123006 57 204 7.0 17.0 0.00 0.00 0.00 73 1008.2
20260902121515 57 206 8.0 19.0 0.00 0.00 0.00 74 1007.9
20260902120023 58 217 5.0 12.0 0.00 0.00 0.00 73 1008.1
20260902114510 60 166 5.0 14.0 0.00 0.00 0.00 67 1008.1
20260902113008 60 161 5.0 19.0 0.00 0.00 0.00 66 1008.1
20260902111511 60 150 7.0 18.0 0.00 0.00 0.00 67 1007.7
20260902110014 59 215 8.0 15.0 0.00 0.00 0.00 68 1007.6
20260902104545 59 281 7.0 16.0 0.00 0.00 0.00 68 1007.7
20260902103027 59 163 6.0 18.0 0.00 0.00 0.00 66 1007.4
20260902101514 59 144 7.0 16.0 0.00 0.00 0.00 66 1007.3
20260902100018 60 105 8.0 18.0 0.00 0.00 0.00 64 1007.4
20260902094516 60 178 6.0 17.0 0.00 0.00 0.00 63 1007.4
20260902093033 60 188 6.0 16.0 0.00 0.00 0.00 62 1007.2
20260902091531 61 136 4.0 15.0 0.00 0.00 0.00 61 1007.3
20260902090020 61 142 5.0 9.0 0.00 0.00 0.00 62 1007.6
20260902084502 61 199 4.0 13.0 0.00 0.00 0.00 62 1007.6
20260902083006 61 229 4.0 11.0 0.00 0.00 0.00 62 1007.6
20260902081504 62 115 5.0 15.0 0.00 0.00 0.00 61 1007.4
20260902080008 62 171 6.0 14.0 0.00 0.00 0.00 58 1007.5
20260902074505 63 161 6.0 15.0 0.00 0.00 0.00 58 1007.5
20260902073004 63 149 6.0 13.0 0.00 0.00 0.00 58 1007.3
20260902071504 64 186 5.0 14.0 0.00 0.00 0.00 57 1007.2
20260902070006 64 238 5.0 14.0 0.00 0.00 0.00 55 1006.9
20260902064507 64 215 5.0 16.0 0.00 0.00 0.00 54 1007.0
20260902063003 65 240 7.0 15.0 0.00 0.00 0.00 54 1006.4
20260902061507 65 159 6.0 17.0 0.00 0.00 0.00 53 1006.3
20260902060013 66 167 7.0 22.0 0.00 0.00 0.00 51 1006.2
20260902054508 66 143 8.0 21.0 0.00 0.00 0.00 51 1006.2
20260902053003 67 175 8.0 21.0 0.00 0.00 0.00 51 1006.1
20260902051506 67 163 9.0 23.0 0.00 0.00 0.00 51 1006.0
20260902050008 68 188 9.0 19.0 0.00 0.00 0.00 50 1005.9
20260902044531 69 176 8.0 16.0 0.00 0.00 0.00 48 1005.9
20260902043013 69 169 8.0 20.0 0.00 0.00 0.00 47 1005.7
20260902041503 70 240 6.0 16.0 0.00 0.00 0.00 45 1005.5
20260902040007 71 189 8.0 17.0 0.00 0.00 0.00 42 1005.4
20260902034505 72 177 6.0 18.0 0.00 0.00 0.00 40 1005.3
20260902033004 73 206 7.0 13.0 0.00 0.00 0.00 37 1005.2
20260902031535 74 205 5.0 12.0 0.00 0.00 0.00 35 1005.4
20260902030004 75 153 6.0 11.0 0.00 0.00 0.00 34 1005.1
20260902024507 76 139 4.0 13.0 0.00 0.00 0.00 34 1005.0
20260902023015 77 175 4.0 11.0 0.00 0.00 0.00 33 1004.9
20260902021515 78 178 2.0 7.0 0.00 0.00 0.00 34 1005.0
20260902020010 80 153 0.0 3.0 0.00 0.00 0.00 35 1005.0
20260902014521 80 175 0.0 4.0 0.00 0.00 0.00 34 1005.0
20260902013011 81 173 2.0 5.0 0.00 0.00 0.00 32 1005.0
20260902011518 81 178 1.0 6.0 0.00 0.00 0.00 31 1005.0
20260902010023 81 162 0.0 5.0 0.00 0.00 0.00 33 1005.0
20260902004518 81 180 1.0 5.0 0.00 0.00 0.00 32 1005.1
20260902003011 81 167 1.0 3.0 0.00 0.00 0.00 32 1005.1
20260902001515 82 157 0.0 1.0 0.00 0.00 0.00 38 1005.1